Main page
Satellite images Climate Cyclones Lightning AirportsFAQ Languages Contact Newsletter About
Weather : Europe Africa North America South America Asia Australia-Oceania Others

5371, Ubon Ratchathani, Ubon Ratchathani Airport

48407

latitude: , longitude: Thailand, elevation: 15-15N m


METAR: VTUU 241300Z 34003KT 7000 NSC 29/20 Q1013 NOSIG